Regional Weather Roundup
Issued by NWS State College, PA

Home | Current Version | Previous Version | Graphics & Text | Print | Product List | Glossary Off
Versions: 1 2 3 4 5 6 7 8 9 10 11 12 13 14 15 16 17 18 19 20 21 22 23 24 25 26 27 28 29 30 31 32 33 34 35 36 37 38 39 40 41 42 43 44 45 46 47 48 49 50

000
ASUS41 KCTP 270203
RWRCTP

REGIONAL WEATHER ROUNDUP
NATIONAL WEATHER SERVICE STATE COLLEGE PA
1000 PM EDT TUE MAY 26 2015

Note: "fair" indicates few or no clouds below 12,000 feet with no
significant weather and/or obstructions to visibility.

* = STATION THAT DOES NOT REPORT PRECIPITATION /E.G. RAIN...SNOW...ETC/
    THUNDER OR FOG.

PAZ002>004-007>009-013>016-020>023-029>032-270300-
WESTERN PENNSYLVANIA

CITY           SKY/WX    TMP DP  RH WIND       PRES   REMARKS
ERIE           MOCLDY    77  62  59 S15G23    29.98F
MEADVILLE      LGT RAIN  72  63  73 VRB5      30.05S
FRANKLIN*      MOCLDY    72  61  68 S8        30.08S
NEW CASTLE     FAIR      73  68  84 CALM      30.05S
BEAVER COUNTY  NOT AVBL
BUTLER*        PTCLDY    73  63  68 S5        30.08F
PITTSBURGH INT PTCLDY    74  64  71 SE6       30.06F
PITTSBURGH     PTCLDY    74  60  61 S7        30.06F
INDIANA*       CLEAR     72  66  83 VRB3      30.14R
LATROBE        CLEAR     75  64  69 SW6       30.11R
WASHINGTON CO* PTCLDY    66  63  88 CALM      30.09S
$$

PAZ004>006-010>012-017>019-024>028-033>037-041-042-045-046-049>053-270300-
CENTRAL PENNSYLVANIA

CITY           SKY/WX    TMP DP  RH WIND       PRES   REMARKS
BRADFORD       CLEAR     66  61  84 SE5       30.12S
DUBOIS         CLEAR     72  63  73 SE5       30.11S
CLEARFIELD     CLEAR     69  64  84 CALM      30.13R
JOHNSTOWN      MOCLDY    70  62  76 S10       30.16R
ALTOONA        MOCLDY    72  63  73 S7        30.15R
STATE COLLEGE  NOT AVBL
WILLIAMSPORT   MOCLDY    69  67  93 E3        30.09S
SELINSGROVE    MOCLDY    77  64  64 CALM      30.11R
FT INDIANTOWN  MOCLDY    77  68  73 VRB5      30.14R
CAPITAL CITY   PTCLDY    78  66  66 SE9       30.12R
HARRISBURG     MOCLDY    78  68  71 SE7       30.12R
YORK           MOCLDY    76  67  73 VRB5      30.14R
$$

PAZ038>040-043-044-047-048-054-055-060>062-067>071-270300-
EASTERN PENNSYLVANIA

CITY           SKY/WX    TMP DP  RH WIND       PRES   REMARKS
SCRANTON       CLEAR     78  62  57 S8        30.12R
MOUNT POCONO   CLEAR     71  59  65 S5        30.19R
ALLENTOWN      PTCLDY    79  65  62 SW10      30.14R
QUAKERTOWN*    PTCLDY    75  66  73 SW5       30.17R
READING        CLEAR     77  66  68 S6        30.14R
LANCASTER      CLEAR     75  65  70 S12       30.14R
COATESVILLE    CLEAR     73  68  83 S6        30.19R
POTTSTOWN      CLEAR     76  67  73 SW7       30.18R
BLUE BELL      PTCLDY    77  66  69 S6        30.16R
DOYLESTOWN     MOCLDY    75  64  68 S7        30.16R
WILLOW GROVE   NOT AVBL
NORTH PHILA    MOCLDY    77  62  59 S8        30.19R
PHILADELPHIA   MOCLDY    77  64  64 S14       30.18R
$$



USA.gov is the U.S. government's official web portal to all federal, state and local government web resources and services.